Time,TemperatureF,DewpointF,PressureIn,WindDirection,WindDirectionDegrees,WindSpeedMPH,WindSpeedGustMPH,Humidity,HourlyPrecipIn,Conditions,Clouds,dailyrainin,SoftwareType,DateUTC
2013-06-07 00:02:00,60.9,51.4,29.94,NNW,347,0.0,0.0,71,0.00,CLR,SKC,0.00,WeatherDisplay:10.37,2013-06-07 05:02:00,
2013-06-07 00:07:00,60.4,51.7,29.94,NNW,347,0.0,0.0,73,0.00,CLR,SKC,0.00,WeatherDisplay:10.37,2013-06-07 05:07:00,
2013-06-07 00:12:00,59.7,51.4,29.95,NNW,347,0.0,0.0,74,0.00,CLR,SKC,0.00,WeatherDisplay:10.37,2013-06-07 05:12:00,
2013-06-07 00:17:00,58.9,51.3,29.94,NNW,347,0.0,0.0,76,0.00,CLR,SKC,0.00,WeatherDisplay:10.37,2013-06-07 05:17:00,
2013-06-07 00:22:00,58.2,51.4,29.95,NNW,347,0.0,0.0,78,0.00,CLR,SKC,0.00,WeatherDisplay:10.37,2013-06-07 05:22:00,
2013-06-07 00:27:00,57.6,51.1,29.95,NNW,347,0.0,0.0,79,0.00,CLR,SKC,0.00,WeatherDisplay:10.37,2013-06-07 05:27:00,
2013-06-07 00:32:00,57.0,51.2,29.95,NNW,347,0.0,0.0,81,0.00,CLR,SKC,0.00,WeatherDisplay:10.37,2013-06-07 05:32:00,
2013-06-07 00:37:00,56.9,50.5,29.95,NNW,347,0.0,0.0,79,0.00,CLR,SKC,0.00,WeatherDisplay:10.37,2013-06-07 05:37:00,
2013-06-07 00:42:00,57.5,50.3,29.95,NNW,344,0.0,0.0,77,0.00,CLR,SKC,0.00,WeatherDisplay:10.37,2013-06-07 05:42:00,
2013-06-07 00:47:00,58.2,50.7,29.95,NNW,341,0.0,0.0,76,0.00,CLR,SKC,0.00,WeatherDisplay:10.37,2013-06-07 05:47:00,
2013-06-07 00:52:00,58.3,51.1,29.95,NNW,341,0.0,0.0,77,0.00,CLR,SKC,0.00,WeatherDisplay:10.37,2013-06-07 05:52:00,
2013-06-07 00:57:00,57.7,50.9,29.95,NNW,341,0.0,0.0,78,0.00,CLR,SKC,0.00,WeatherDisplay:10.37,2013-06-07 05:57:00,
2013-06-07 01:02:00,57.4,50.9,29.95,NNW,341,0.0,0.0,79,0.00,CLR,SKC,0.00,WeatherDisplay:10.37,2013-06-07 06:02:00,
2013-06-07 01:07:00,57.0,50.5,29.95,NNW,341,0.0,0.0,79,0.00,CLR,SKC,0.00,WeatherDisplay:10.37,2013-06-07 06:07:00,
2013-06-07 01:12:00,56.6,50.5,29.95,NNW,341,0.0,0.0,80,0.00,CLR,SKC,0.00,WeatherDisplay:10.37,2013-06-07 06:12:00,
2013-06-07 01:17:00,56.1,50.3,29.95,NNW,341,0.0,0.0,81,0.00,CLR,SKC,0.00,WeatherDisplay:10.37,2013-06-07 06:17:00,
2013-06-07 01:22:00,55.5,50.1,29.95,NNW,341,0.0,0.0,82,0.00,CLR,SKC,0.00,WeatherDisplay:10.37,2013-06-07 06:22:00,
2013-06-07 01:27:00,55.1,50.4,29.95,NNW,341,0.0,0.0,84,0.00,CLR,SKC,0.00,WeatherDisplay:10.37,2013-06-07 06:27:00,
2013-06-07 01:32:00,55.0,50.6,29.95,NNW,341,0.0,0.0,85,0.00,CLR,SKC,0.00,WeatherDisplay:10.37,2013-06-07 06:32:00,
2013-06-07 01:37:00,54.8,50.1,29.95,NNW,341,0.0,0.0,84,0.00,CLR,SKC,0.00,WeatherDisplay:10.37,2013-06-07 06:37:00,
2013-06-07 01:42:00,54.6,50.2,29.95,NNW,341,0.0,0.0,85,0.00,CLR,SKC,0.00,WeatherDisplay:10.37,2013-06-07 06:42:00,
2013-06-07 01:47:00,54.3,49.9,29.95,NNW,341,0.0,0.0,85,0.00,CLR,SKC,0.00,WeatherDisplay:10.37,2013-06-07 06:47:00,
2013-06-07 01:52:00,54.3,49.9,29.95,NNE,19,0.0,0.0,85,0.00,CLR,SKC,0.00,WeatherDisplay:10.37,2013-06-07 06:52:00,
2013-06-07 01:57:00,55.5,50.1,29.95,North,2,2.3,2.3,82,0.00,CLR,SKC,0.00,WeatherDisplay:10.37,2013-06-07 06:57:00,
2013-06-07 02:02:00,56.3,50.5,29.95,NNW,332,3.5,3.5,81,0.00,CLR,SKC,0.00,WeatherDisplay:10.37,2013-06-07 07:02:00,
2013-06-07 02:07:00,56.6,50.5,29.95,NNW,344,0.0,0.0,80,0.00,CLR,SKC,0.00,WeatherDisplay:10.37,2013-06-07 07:07:00,
2013-06-07 02:12:00,56.5,50.4,29.95,NW,322,1.2,1.2,80,0.00,CLR,SKC,0.00,WeatherDisplay:10.37,2013-06-07 07:12:00,
2013-06-07 02:17:00,56.5,50.4,29.95,NNW,331,0.0,0.0,80,0.00,CLR,SKC,0.00,WeatherDisplay:10.37,2013-06-07 07:17:00,
2013-06-07 02:22:00,56.2,50.1,29.95,NNW,333,0.0,0.0,80,0.00,CLR,SKC,0.00,WeatherDisplay:10.37,2013-06-07 07:22:00,
2013-06-07 02:27:00,55.9,50.2,29.94,NNW,344,1.2,1.2,81,0.00,CLR,SKC,0.00,WeatherDisplay:10.37,2013-06-07 07:27:00,
2013-06-07 02:32:00,55.7,50.3,29.95,NNW,348,0.0,0.0,82,0.00,CLR,SKC,0.00,WeatherDisplay:10.37,2013-06-07 07:32:00,
2013-06-07 02:37:00,55.6,50.2,29.95,NNW,348,0.0,0.0,82,0.00,CLR,SKC,0.00,WeatherDisplay:10.37,2013-06-07 07:37:00,
2013-06-07 02:42:00,55.5,50.1,29.95,NNW,340,0.0,0.0,82,0.00,CLR,SKC,0.00,WeatherDisplay:10.37,2013-06-07 07:42:00,
2013-06-07 02:47:00,55.4,50.3,29.95,NNW,340,0.0,0.0,83,0.00,CLR,SKC,0.00,WeatherDisplay:10.37,2013-06-07 07:47:00,
2013-06-07 02:52:00,55.1,50.0,29.95,NNW,340,0.0,0.0,83,0.00,CLR,SKC,0.00,WeatherDisplay:10.37,2013-06-07 07:52:00,
2013-06-07 02:57:00,54.9,50.2,29.95,NNW,340,0.0,0.0,84,0.00,CLR,SKC,0.00,WeatherDisplay:10.37,2013-06-07 07:57:00,
2013-06-07 03:02:00,54.6,49.9,29.95,NNW,340,0.0,0.0,84,0.00,CLR,SKC,0.00,WeatherDisplay:10.37,2013-06-07 08:02:00,
2013-06-07 03:07:00,54.4,50.0,29.95,NNW,340,0.0,0.0,85,0.00,CLR,SKC,0.00,WeatherDisplay:10.37,2013-06-07 08:07:00,
2013-06-07 03:12:00,54.3,49.9,29.95,NNW,340,0.0,0.0,85,0.00,CLR,SKC,0.00,WeatherDisplay:10.37,2013-06-07 08:12:00,
2013-06-07 03:18:00,54.3,49.9,29.95,NNW,338,1.1,1.1,85,0.00,CLR,SKC,0.00,WeatherDisplay:10.37,2013-06-07 08:18:00,
2013-06-07 03:23:00,54.4,50.0,29.95,NNW,338,0.0,0.0,85,0.00,CLR,SKC,0.00,WeatherDisplay:10.37,2013-06-07 08:23:00,
2013-06-07 03:28:00,54.6,50.2,29.95,NNW,338,0.0,0.0,85,0.00,CLR,SKC,0.00,WeatherDisplay:10.37,2013-06-07 08:28:00,
2013-06-07 03:33:00,54.4,50.0,29.95,NNW,338,0.0,0.0,85,0.00,CLR,SKC,0.00,WeatherDisplay:10.37,2013-06-07 08:33:00,
2013-06-07 03:38:00,54.2,49.8,29.95,NNW,338,0.0,0.0,85,0.00,CLR,SKC,0.00,WeatherDisplay:10.37,2013-06-07 08:38:00,
2013-06-07 03:43:00,53.9,49.8,29.95,NNW,338,0.0,0.0,86,0.00,CLR,SKC,0.00,WeatherDisplay:10.37,2013-06-07 08:43:00,
2013-06-07 03:48:00,53.6,49.5,29.95,NNW,338,0.0,0.0,86,0.00,CLR,SKC,0.00,WeatherDisplay:10.37,2013-06-07 08:48:00,
2013-06-07 03:53:00,53.5,49.7,29.95,NNW,338,0.0,0.0,87,0.00,CLR,SKC,0.00,WeatherDisplay:10.37,2013-06-07 08:53:00,
2013-06-07 03:58:00,53.7,49.6,29.95,NNW,338,0.0,0.0,86,0.00,CLR,SKC,0.00,WeatherDisplay:10.37,2013-06-07 08:58:00,
2013-06-07 04:03:00,53.4,49.6,29.95,NNW,338,0.0,0.0,87,0.00,CLR,SKC,0.00,WeatherDisplay:10.37,2013-06-07 09:03:00,
2013-06-07 04:08:00,53.3,49.2,29.95,NNW,338,0.0,0.0,86,0.00,CLR,SKC,0.00,WeatherDisplay:10.37,2013-06-07 09:08:00,
2013-06-07 04:13:00,52.9,49.4,29.95,NNW,338,0.0,0.0,88,0.00,CLR,SKC,0.00,WeatherDisplay:10.37,2013-06-07 09:13:00,
2013-06-07 04:18:00,52.5,49.4,29.95,NNW,338,0.0,0.0,89,0.00,CLR,SKC,0.00,WeatherDisplay:10.37,2013-06-07 09:18:00,
2013-06-07 04:23:00,52.2,49.4,29.95,NNW,338,0.0,0.0,90,0.00,CLR,SKC,0.00,WeatherDisplay:10.37,2013-06-07 09:23:00,
2013-06-07 04:28:00,51.8,49.0,29.95,NNW,338,0.0,0.0,90,0.00,CLR,SKC,0.00,WeatherDisplay:10.37,2013-06-07 09:28:00,
2013-06-07 04:33:00,51.4,48.6,29.95,NNW,338,0.0,0.0,90,0.00,CLR,SKC,0.00,WeatherDisplay:10.37,2013-06-07 09:33:00,
2013-06-07 04:38:00,51.0,48.2,29.96,NNW,338,0.0,0.0,90,0.00,CLR,SKC,0.00,WeatherDisplay:10.37,2013-06-07 09:38:00,
2013-06-07 04:43:00,50.8,48.6,29.96,NNW,338,0.0,0.0,92,0.00,CLR,SKC,0.00,WeatherDisplay:10.37,2013-06-07 09:43:00,
2013-06-07 04:48:00,50.7,48.5,29.96,NNW,338,0.0,0.0,92,0.00,CLR,SKC,0.00,WeatherDisplay:10.37,2013-06-07 09:48:00,
2013-06-07 04:53:00,50.5,48.3,29.96,NNW,338,0.0,0.0,92,0.00,CLR,SKC,0.00,WeatherDisplay:10.37,2013-06-07 09:53:00,
2013-06-07 04:58:00,50.6,48.7,29.97,NNW,338,0.0,0.0,93,0.00,CLR,SKC,0.00,WeatherDisplay:10.37,2013-06-07 09:58:00,
2013-06-07 05:03:00,50.5,48.3,29.97,NNW,338,0.0,0.0,92,0.00,CLR,SKC,0.00,WeatherDisplay:10.37,2013-06-07 10:03:00,
2013-06-07 05:08:00,50.3,48.4,29.97,NNW,338,0.0,0.0,93,0.00,CLR,SKC,0.00,WeatherDisplay:10.37,2013-06-07 10:08:00,
2013-06-07 05:13:00,50.2,48.3,29.97,NNW,338,0.0,0.0,93,0.00,CLR,SKC,0.00,WeatherDisplay:10.37,2013-06-07 10:13:00,
2013-06-07 05:18:00,50.2,48.3,29.97,NNW,338,0.0,0.0,93,0.00,CLR,SKC,0.00,WeatherDisplay:10.37,2013-06-07 10:18:00,
2013-06-07 05:23:00,50.4,48.7,29.97,NNW,338,0.0,0.0,94,0.00,CLR,SKC,0.00,WeatherDisplay:10.37,2013-06-07 10:23:00,
2013-06-07 05:28:00,50.5,48.6,29.97,NNW,338,0.0,0.0,93,0.00,CLR,SKC,0.00,WeatherDisplay:10.37,2013-06-07 10:28:00,
2013-06-07 05:33:00,50.5,48.6,29.97,NNW,338,0.0,0.0,93,0.00,CLR,SKC,0.00,WeatherDisplay:10.37,2013-06-07 10:33:00,
2013-06-07 05:38:00,50.4,48.2,29.98,NNW,338,0.0,0.0,92,0.00,CLR,SKC,0.00,WeatherDisplay:10.37,2013-06-07 10:38:00,
2013-06-07 05:43:00,50.2,48.3,29.98,NNW,338,0.0,0.0,93,0.00,CLR,SKC,0.00,WeatherDisplay:10.37,2013-06-07 10:43:00,
2013-06-07 05:48:00,50.2,48.3,29.98,NNW,338,0.0,0.0,93,0.00,CLR,SKC,0.00,WeatherDisplay:10.37,2013-06-07 10:48:00,
2013-06-07 05:53:00,50.2,48.3,29.97,NNW,338,0.0,0.0,93,0.00,CLR,SKC,0.00,WeatherDisplay:10.37,2013-06-07 10:53:00,
2013-06-07 05:58:00,50.0,48.1,29.97,NNW,338,0.0,0.0,93,0.00,CLR,SKC,0.00,WeatherDisplay:10.37,2013-06-07 10:58:00,
2013-06-07 06:03:00,49.9,48.0,29.97,NNW,338,0.0,0.0,93,0.00,CLR,SKC,0.00,WeatherDisplay:10.37,2013-06-07 11:03:00,
2013-06-07 06:08:00,49.9,48.0,29.98,NNW,338,0.0,0.0,93,0.00,CLR,SKC,0.00,WeatherDisplay:10.37,2013-06-07 11:08:00,
2013-06-07 06:13:00,49.9,48.2,29.98,NNW,338,0.0,0.0,94,0.00,CLR,SKC,0.00,WeatherDisplay:10.37,2013-06-07 11:13:00,
2013-06-07 06:18:00,50.0,48.3,29.98,NNW,338,0.0,0.0,94,0.00,CLR,SKC,0.00,WeatherDisplay:10.37,2013-06-07 11:18:00,
2013-06-07 06:23:00,50.1,48.4,29.98,NNW,338,0.0,0.0,94,0.00,CLR,SKC,0.00,WeatherDisplay:10.37,2013-06-07 11:23:00,
2013-06-07 06:28:00,50.4,48.7,29.98,NNW,338,0.0,0.0,94,0.00,CLR,SKC,0.00,WeatherDisplay:10.37,2013-06-07 11:28:00,
2013-06-07 06:33:00,50.5,48.6,29.97,NNW,338,0.0,0.0,93,0.00,CLR,SKC,0.00,WeatherDisplay:10.37,2013-06-07 11:33:00,
2013-06-07 06:38:00,51.0,49.0,29.97,NNW,338,0.0,0.0,93,0.00,CLR,SKC,0.00,WeatherDisplay:10.37,2013-06-07 11:38:00,
2013-06-07 06:43:00,51.6,49.4,29.97,NNW,338,0.0,0.0,92,0.00,CLR,SKC,0.00,WeatherDisplay:10.37,2013-06-07 11:43:00,
2013-06-07 06:48:00,52.2,49.7,29.97,NNW,338,0.0,0.0,91,0.00,CLR,SKC,0.00,WeatherDisplay:10.37,2013-06-07 11:48:00,
2013-06-07 06:53:00,52.5,49.7,29.98,NNW,332,0.0,0.0,90,0.00,CLR,SKC,0.00,WeatherDisplay:10.37,2013-06-07 11:53:00,
2013-06-07 06:58:00,52.8,49.9,29.98,NW,317,0.0,0.0,90,0.00,CLR,SKC,0.00,WeatherDisplay:10.37,2013-06-07 11:58:00,
2013-06-07 07:03:00,53.2,50.3,29.98,NW,317,0.0,0.0,90,0.00,CLR,SKC,0.00,WeatherDisplay:10.37,2013-06-07 12:03:00,
2013-06-07 07:08:00,53.6,50.7,29.98,NW,317,0.0,0.0,90,0.00,CLR,SKC,0.00,WeatherDisplay:10.37,2013-06-07 12:08:00,
2013-06-07 07:13:00,54.3,51.4,29.98,NW,317,0.0,0.0,90,0.00,CLR,SKC,0.00,WeatherDisplay:10.37,2013-06-07 12:13:00,
2013-06-07 07:18:00,54.7,51.5,29.98,WNW,301,1.1,1.1,89,0.00,CLR,SKC,0.00,WeatherDisplay:10.37,2013-06-07 12:18:00,
2013-06-07 07:23:00,55.1,51.6,29.98,NW,310,2.3,2.3,88,0.00,CLR,SKC,0.00,WeatherDisplay:10.37,2013-06-07 12:23:00,
2013-06-07 07:28:00,55.5,52.0,29.98,NW,312,2.3,2.3,88,0.00,CLR,SKC,0.00,WeatherDisplay:10.37,2013-06-07 12:28:00,
2013-06-07 07:33:00,56.2,52.7,29.98,NW,312,0.0,0.0,88,0.00,CLR,SKC,0.00,WeatherDisplay:10.37,2013-06-07 12:33:00,
2013-06-07 07:38:00,56.9,53.1,29.97,NW,316,0.0,0.0,87,0.00,CLR,SKC,0.00,WeatherDisplay:10.37,2013-06-07 12:38:00,
2013-06-07 07:43:00,57.5,52.7,29.97,NW,314,3.5,3.5,84,0.00,CLR,SKC,0.00,WeatherDisplay:10.37,2013-06-07 12:43:00,
2013-06-07 07:48:00,58.2,53.1,29.97,NNW,340,2.1,2.1,83,0.00,CLR,SKC,0.00,WeatherDisplay:10.37,2013-06-07 12:48:00,
2013-06-07 07:53:00,58.6,52.8,29.98,NW,309,3.2,3.2,81,0.00,CLR,SKC,0.00,WeatherDisplay:10.37,2013-06-07 12:53:00,
2013-06-07 07:58:00,58.7,52.5,29.97,NNW,328,2.3,2.3,80,0.00,CLR,SKC,0.00,WeatherDisplay:10.37,2013-06-07 12:58:00,
2013-06-07 08:03:00,59.2,53.4,29.97,NW,304,2.3,2.3,81,0.00,CLR,SKC,0.00,WeatherDisplay:10.37,2013-06-07 13:03:00,
2013-06-07 08:08:00,59.5,53.7,29.97,WNW,303,0.0,0.0,81,0.00,CLR,SKC,0.00,WeatherDisplay:10.37,2013-06-07 13:08:00,
2013-06-07 08:13:00,59.7,53.2,29.98,NW,306,0.0,0.0,79,0.00,CLR,SKC,0.00,WeatherDisplay:10.37,2013-06-07 13:13:00,
2013-06-07 08:18:00,60.5,54.3,29.98,NW,305,0.0,0.0,80,0.00,CLR,SKC,0.00,WeatherDisplay:10.37,2013-06-07 13:18:00,
2013-06-07 08:23:00,61.5,53.9,29.98,West,281,0.0,0.0,76,0.00,CLR,SKC,0.00,WeatherDisplay:10.37,2013-06-07 13:23:00,
2013-06-07 08:28:00,62.0,54.3,29.98,West,281,0.0,0.0,76,0.00,CLR,SKC,0.00,WeatherDisplay:10.37,2013-06-07 13:28:00,
2013-06-07 08:33:00,63.1,54.3,29.98,West,264,0.0,0.0,73,0.00,CLR,SKC,0.00,WeatherDisplay:10.37,2013-06-07 13:33:00,
2013-06-07 08:38:00,63.4,54.2,29.98,West,264,0.0,0.0,72,0.00,CLR,SKC,0.00,WeatherDisplay:10.37,2013-06-07 13:38:00,
2013-06-07 08:43:00,64.4,55.6,29.98,ESE,109,0.0,0.0,73,0.00,CLR,SKC,0.00,WeatherDisplay:10.37,2013-06-07 13:43:00,
2013-06-07 08:48:00,64.6,54.2,29.98,WNW,302,0.0,0.0,69,0.00,CLR,SKC,0.00,WeatherDisplay:10.37,2013-06-07 13:48:00,
2013-06-07 08:53:00,63.7,54.5,29.98,WNW,295,0.0,0.0,72,0.00,CLR,SKC,0.00,WeatherDisplay:10.37,2013-06-07 13:53:00,
2013-06-07 08:58:00,63.5,55.1,29.98,NW,315,0.0,0.0,74,0.00,CLR,SKC,0.00,WeatherDisplay:10.37,2013-06-07 13:58:00,
2013-06-07 09:03:00,63.8,54.6,29.99,North,352,3.5,3.5,72,0.00,CLR,SKC,0.00,WeatherDisplay:10.37,2013-06-07 14:03:00,
2013-06-07 09:08:00,64.0,54.0,29.99,NW,326,3.5,3.5,70,0.00,CLR,SKC,0.00,WeatherDisplay:10.37,2013-06-07 14:08:00,
2013-06-07 09:13:00,63.8,53.4,29.99,NE,54,0.0,0.0,69,0.00,CLR,SKC,0.00,WeatherDisplay:10.37,2013-06-07 14:13:00,
2013-06-07 09:19:00,63.7,54.5,29.99,East,81,0.0,0.0,72,0.00,CLR,SKC,0.00,WeatherDisplay:10.37,2013-06-07 14:19:00,
2013-06-07 09:24:00,64.3,53.1,29.99,WNW,297,2.3,0.0,67,0.00,CLR,SKC,0.00,WeatherDisplay:10.37,2013-06-07 14:24:00,
2013-06-07 09:29:00,64.9,54.1,29.99,ENE,78,3.5,3.5,68,0.00,CLR,SKC,0.00,WeatherDisplay:10.37,2013-06-07 14:29:00,
2013-06-07 09:34:00,64.6,54.6,29.99,NNE,31,3.2,3.2,70,0.00,CLR,SKC,0.00,WeatherDisplay:10.37,2013-06-07 14:34:00,
2013-06-07 09:39:00,64.8,54.8,29.99,West,279,0.0,0.0,70,0.00,CLR,SKC,0.00,WeatherDisplay:10.37,2013-06-07 14:39:00,
2013-06-07 09:44:00,64.9,54.5,29.99,WSW,250,3.5,3.5,69,0.00,CLR,SKC,0.00,WeatherDisplay:10.37,2013-06-07 14:44:00,
2013-06-07 09:49:00,65.3,54.1,29.99,WSW,255,2.3,2.3,67,0.00,CLR,SKC,0.00,WeatherDisplay:10.37,2013-06-07 14:49:00,
2013-06-07 09:54:00,65.9,54.2,29.99,North,8,0.0,0.0,66,0.00,CLR,SKC,0.00,WeatherDisplay:10.37,2013-06-07 14:54:00,
2013-06-07 09:59:00,66.0,53.9,29.99,WNW,296,0.0,0.0,65,0.00,CLR,SKC,0.00,WeatherDisplay:10.37,2013-06-07 14:59:00,
2013-06-07 10:04:00,66.2,53.7,29.98,WSW,255,0.0,0.0,64,0.00,CLR,SKC,0.00,WeatherDisplay:10.37,2013-06-07 15:04:00,
2013-06-07 10:09:00,66.5,53.5,29.98,NNW,335,6.9,6.9,63,0.00,CLR,SKC,0.00,WeatherDisplay:10.37,2013-06-07 15:09:00,
2013-06-07 10:14:00,65.3,52.8,29.98,NW,319,3.5,3.5,64,0.00,CLR,SKC,0.00,WeatherDisplay:10.37,2013-06-07 15:14:00,
2013-06-07 10:19:00,65.5,53.4,29.98,WNW,295,6.9,6.9,65,0.00,CLR,SKC,0.00,WeatherDisplay:10.37,2013-06-07 15:19:00,
2013-06-07 10:24:00,65.5,53.4,29.98,NW,312,4.6,4.6,65,0.00,CLR,SKC,0.00,WeatherDisplay:10.37,2013-06-07 15:24:00,
2013-06-07 10:29:00,66.0,53.9,29.98,NNW,338,5.8,5.8,65,0.00,CLR,SKC,0.00,WeatherDisplay:10.37,2013-06-07 15:29:00,
2013-06-07 10:34:00,66.2,53.2,29.98,NW,316,2.3,2.3,63,0.00,CLR,SKC,0.00,WeatherDisplay:10.37,2013-06-07 15:34:00,
2013-06-07 10:39:00,66.7,54.6,29.98,ENE,76,3.5,3.5,65,0.00,CLR,SKC,0.00,WeatherDisplay:10.37,2013-06-07 15:39:00,
2013-06-07 10:44:00,67.4,54.4,29.97,North,8,5.3,5.3,63,0.00,CLR,SKC,0.00,WeatherDisplay:10.37,2013-06-07 15:44:00,
2013-06-07 10:49:00,68.0,54.0,29.97,NNE,12,6.4,6.4,61,0.00,CLR,SKC,0.00,WeatherDisplay:10.37,2013-06-07 15:49:00,
2013-06-07 10:54:00,68.0,54.0,29.97,NNW,335,6.9,6.9,61,0.00,CLR,SKC,0.00,WeatherDisplay:10.37,2013-06-07 15:54:00,
2013-06-07 10:59:00,68.1,54.1,29.97,North,5,9.2,9.2,61,0.00,CLR,SKC,0.00,WeatherDisplay:10.37,2013-06-07 15:59:00,
2013-06-07 11:04:00,67.6,53.2,29.97,North,9,8.5,8.5,60,0.00,CLR,SKC,0.00,WeatherDisplay:10.37,2013-06-07 16:04:00,
2013-06-07 11:09:00,67.6,53.2,29.97,North,4,6.9,6.9,60,0.00,CLR,SKC,0.00,WeatherDisplay:10.37,2013-06-07 16:09:00,
2013-06-07 11:14:00,67.7,53.8,29.97,NW,309,7.4,7.4,61,0.00,CLR,SKC,0.00,WeatherDisplay:10.37,2013-06-07 16:14:00,
2013-06-07 11:19:00,68.3,55.6,29.97,ENE,60,9.5,9.5,64,0.00,CLR,SKC,0.00,WeatherDisplay:10.37,2013-06-07 16:19:00,
2013-06-07 11:24:00,67.7,54.2,29.97,NW,311,4.6,4.6,62,0.00,CLR,SKC,0.00,WeatherDisplay:10.37,2013-06-07 16:24:00,
2013-06-07 11:29:00,67.4,52.6,29.97,NW,313,9.2,9.2,59,0.00,CLR,SKC,0.00,WeatherDisplay:10.37,2013-06-07 16:29:00,
2013-06-07 11:34:00,66.9,52.6,29.97,NW,313,6.9,6.9,60,0.00,CLR,SKC,0.00,WeatherDisplay:10.37,2013-06-07 16:34:00,
2013-06-07 11:39:00,66.8,53.4,29.97,WNW,282,6.9,6.9,62,0.00,CLR,SKC,0.00,WeatherDisplay:10.37,2013-06-07 16:39:00,
2013-06-07 11:44:00,67.3,52.0,29.97,West,269,4.6,4.6,58,0.00,CLR,SKC,0.00,WeatherDisplay:10.37,2013-06-07 16:44:00,
2013-06-07 11:49:00,67.3,51.1,29.96,NW,313,10.4,10.4,56,0.00,CLR,SKC,0.00,WeatherDisplay:10.37,2013-06-07 16:49:00,
2013-06-07 11:54:00,67.3,51.1,29.96,NW,321,5.8,5.8,56,0.00,CLR,SKC,0.00,WeatherDisplay:10.37,2013-06-07 16:54:00,
2013-06-07 11:59:00,68.1,50.8,29.96,NNW,335,6.9,6.9,54,0.00,CLR,SKC,0.00,WeatherDisplay:10.37,2013-06-07 16:59:00,
2013-06-07 12:04:00,68.3,52.0,29.96,North,6,5.8,5.8,56,0.00,CLR,SKC,0.00,WeatherDisplay:10.37,2013-06-07 17:04:00,
2013-06-07 12:09:00,68.1,52.3,29.96,NNE,31,3.5,3.5,57,0.00,CLR,SKC,0.00,WeatherDisplay:10.37,2013-06-07 17:09:00,
2013-06-07 12:14:00,68.3,52.5,29.96,NW,309,5.8,5.8,57,0.00,CLR,SKC,0.00,WeatherDisplay:10.37,2013-06-07 17:14:00,
2013-06-07 12:19:00,68.3,51.0,29.96,NW,304,9.5,9.5,54,0.00,CLR,SKC,0.00,WeatherDisplay:10.37,2013-06-07 17:19:00,
2013-06-07 12:24:00,68.4,50.1,29.96,WNW,302,5.8,5.8,52,0.00,CLR,SKC,0.00,WeatherDisplay:10.37,2013-06-07 17:24:00,
2013-06-07 12:29:00,68.3,50.5,29.95,ENE,72,6.4,6.4,53,0.00,CLR,SKC,0.00,WeatherDisplay:10.37,2013-06-07 17:29:00,
2013-06-07 12:34:00,68.3,51.0,29.95,NNE,25,8.5,8.5,54,0.00,CLR,SKC,0.00,WeatherDisplay:10.37,2013-06-07 17:34:00,
2013-06-07 12:39:00,69.4,52.5,29.95,WNW,302,6.9,6.9,55,0.00,CLR,SKC,0.00,WeatherDisplay:10.37,2013-06-07 17:39:00,
2013-06-07 12:44:00,69.4,49.9,29.95,NW,314,9.5,9.5,50,0.00,CLR,SKC,0.00,WeatherDisplay:10.37,2013-06-07 17:44:00,
2013-06-07 12:49:00,69.7,49.7,29.95,NW,316,9.5,9.5,49,0.00,CLR,SKC,0.00,WeatherDisplay:10.37,2013-06-07 17:49:00,
2013-06-07 12:55:00,70.0,49.4,29.95,NW,314,10.6,10.6,48,0.00,CLR,SKC,0.00,WeatherDisplay:10.37,2013-06-07 17:55:00,
2013-06-07 13:00:00,70.6,52.6,29.95,NW,307,5.8,5.8,53,0.00,CLR,SKC,0.00,WeatherDisplay:10.37,2013-06-07 18:00:00,
2013-06-07 13:06:00,70.7,47.7,29.94,NW,310,9.5,9.5,44,0.00,CLR,SKC,0.00,WeatherDisplay:10.37,2013-06-07 18:06:00,
2013-06-07 13:12:00,70.1,49.5,29.94,North,1,6.9,6.9,48,0.00,CLR,SKC,0.00,WeatherDisplay:10.37,2013-06-07 18:12:00,
2013-06-07 13:17:00,70.6,49.4,29.94,WNW,300,9.2,9.2,47,0.00,CLR,SKC,0.00,WeatherDisplay:10.37,2013-06-07 18:17:00,
2013-06-07 13:22:00,70.6,50.0,29.94,North,4,6.4,6.4,48,0.00,CLR,SKC,0.00,WeatherDisplay:10.37,2013-06-07 18:22:00,
2013-06-07 13:27:00,71.0,49.2,29.94,North,349,7.4,7.4,46,0.00,CLR,SKC,0.00,WeatherDisplay:10.37,2013-06-07 18:27:00,
2013-06-07 13:32:00,71.5,50.2,29.93,NNE,13,11.7,11.7,47,0.00,CLR,SKC,0.00,WeatherDisplay:10.37,2013-06-07 18:32:00,
2013-06-07 13:37:00,71.5,48.4,29.93,North,8,9.5,9.5,44,0.00,CLR,SKC,0.00,WeatherDisplay:10.37,2013-06-07 18:37:00,
2013-06-07 13:42:00,71.3,51.7,29.93,NNE,15,4.2,4.2,50,0.00,CLR,SKC,0.00,WeatherDisplay:10.37,2013-06-07 18:42:00,
2013-06-07 13:48:00,71.1,48.7,29.93,East,96,8.5,8.5,45,0.00,CLR,SKC,0.00,WeatherDisplay:10.37,2013-06-07 18:48:00,
2013-06-07 13:54:00,71.3,49.4,29.92,NNE,17,8.1,8.1,46,0.00,CLR,SKC,0.00,WeatherDisplay:10.37,2013-06-07 18:54:00,
2013-06-07 13:59:00,71.8,48.7,29.92,East,86,8.1,8.1,44,0.00,CLR,SKC,0.00,WeatherDisplay:10.37,2013-06-07 18:59:00,
2013-06-07 14:05:00,71.1,49.3,29.92,North,349,6.9,6.9,46,0.00,CLR,SKC,0.00,WeatherDisplay:10.37,2013-06-07 19:05:00,
2013-06-07 14:10:00,71.1,49.8,29.92,West,276,4.6,4.6,47,0.01,RA,SKC,0.01,WeatherDisplay:10.37,2013-06-07 19:10:00,
2013-06-07 14:15:00,71.9,50.0,29.92,NW,306,9.5,9.5,46,0.01,RA,SKC,0.01,WeatherDisplay:10.37,2013-06-07 19:15:00,
2013-06-07 14:21:00,71.7,49.8,29.92,NW,325,8.1,8.1,46,0.01,CLR,SKC,0.01,WeatherDisplay:10.37,2013-06-07 19:21:00,
2013-06-07 14:26:00,72.0,49.5,29.92,WNW,286,4.6,4.6,45,0.01,CLR,SKC,0.01,WeatherDisplay:10.37,2013-06-07 19:26:00,
2013-06-07 14:32:00,72.4,52.2,29.92,North,350,6.9,6.9,49,0.01,CLR,SKC,0.01,WeatherDisplay:10.37,2013-06-07 19:32:00,
2013-06-07 14:37:00,72.6,51.8,29.92,NW,323,9.5,9.5,48,0.01,CLR,SKC,0.01,WeatherDisplay:10.37,2013-06-07 19:37:00,
2013-06-07 14:42:00,71.9,50.0,29.91,WNW,302,5.8,5.8,46,0.01,CLR,SKC,0.01,WeatherDisplay:10.37,2013-06-07 19:42:00,
2013-06-07 14:47:00,71.6,49.7,29.91,ENE,62,2.3,2.3,46,0.01,CLR,SKC,0.01,WeatherDisplay:10.37,2013-06-07 19:47:00,
2013-06-07 14:52:00,71.4,49.5,29.91,NNE,17,4.2,4.2,46,0.01,CLR,SKC,0.01,WeatherDisplay:10.37,2013-06-07 19:52:00,
2013-06-07 14:57:00,72.2,50.8,29.91,NE,55,8.5,8.5,47,0.01,CLR,SKC,0.01,WeatherDisplay:10.37,2013-06-07 19:57:00,
2013-06-07 15:02:00,72.3,51.5,29.90,NE,50,6.4,6.4,48,0.01,CLR,SKC,0.01,WeatherDisplay:10.37,2013-06-07 20:02:00,
2013-06-07 15:07:00,72.1,49.6,29.91,NW,304,5.8,5.8,45,0.00,CLR,SKC,0.01,WeatherDisplay:10.37,2013-06-07 20:07:00,
2013-06-07 15:12:00,72.1,49.6,29.90,NNW,340,7.4,7.4,45,0.00,CLR,SKC,0.01,WeatherDisplay:10.37,2013-06-07 20:12:00,
2013-06-07 15:18:00,72.3,48.5,29.90,NW,309,8.1,8.1,43,0.00,CLR,SKC,0.01,WeatherDisplay:10.37,2013-06-07 20:18:00,
2013-06-07 15:23:00,73.2,49.4,29.90,North,354,1.1,0.0,43,0.00,CLR,SKC,0.01,WeatherDisplay:10.37,2013-06-07 20:23:00,
2013-06-07 15:28:00,73.8,48.6,29.90,West,281,2.3,2.3,41,0.00,CLR,SKC,0.01,WeatherDisplay:10.37,2013-06-07 20:28:00,
2013-06-07 15:34:00,73.9,50.0,29.90,ENE,64,6.9,6.9,43,0.00,CLR,SKC,0.01,WeatherDisplay:10.37,2013-06-07 20:34:00,
2013-06-07 15:39:00,73.1,51.1,29.89,North,9,3.5,3.5,46,0.00,CLR,SKC,0.01,WeatherDisplay:10.37,2013-06-07 20:39:00,
2013-06-07 15:44:00,73.5,50.9,29.89,NW,312,6.9,6.9,45,0.00,CLR,SKC,0.01,WeatherDisplay:10.37,2013-06-07 20:44:00,
2013-06-07 15:49:00,73.5,51.4,29.89,ENE,62,7.4,7.4,46,0.00,CLR,SKC,0.01,WeatherDisplay:10.37,2013-06-07 20:49:00,
2013-06-07 15:54:00,73.5,50.9,29.89,East,86,7.4,7.4,45,0.00,CLR,SKC,0.01,WeatherDisplay:10.37,2013-06-07 20:54:00,
2013-06-07 16:00:00,73.3,48.8,29.89,ENE,76,3.5,3.5,42,0.00,CLR,SKC,0.01,WeatherDisplay:10.37,2013-06-07 21:00:00,
2013-06-07 16:05:00,73.6,52.7,29.89,East,101,9.5,9.5,48,0.00,CLR,SKC,0.01,WeatherDisplay:10.37,2013-06-07 21:05:00,
2013-06-07 16:10:00,73.5,49.0,29.89,ENE,59,4.6,4.6,42,0.00,CLR,SKC,0.01,WeatherDisplay:10.37,2013-06-07 21:10:00,
2013-06-07 16:16:00,73.8,51.1,29.89,NE,51,6.4,6.4,45,0.00,CLR,SKC,0.01,WeatherDisplay:10.37,2013-06-07 21:16:00,
2013-06-07 16:21:00,74.2,49.0,29.89,SE,141,1.2,0.0,41,0.00,CLR,SKC,0.01,WeatherDisplay:10.37,2013-06-07 21:21:00,
2013-06-07 16:26:00,74.3,49.1,29.89,WNW,302,4.6,4.6,41,0.00,CLR,SKC,0.01,WeatherDisplay:10.37,2013-06-07 21:26:00,
2013-06-07 16:31:00,74.3,52.2,29.88,ENE,60,4.6,4.6,46,0.01,RA,SKC,0.02,WeatherDisplay:10.37,2013-06-07 21:31:00,
2013-06-07 16:37:00,74.1,49.5,29.88,NE,51,5.8,5.8,42,0.01,RA,SKC,0.02,WeatherDisplay:10.37,2013-06-07 21:37:00,
2013-06-07 16:42:00,74.0,50.7,29.88,East,99,8.5,8.5,44,0.02,RA,SKC,0.03,WeatherDisplay:10.37,2013-06-07 21:42:00,
2013-06-07 16:48:00,74.0,50.7,29.88,ESE,103,6.9,6.9,44,0.05,RA,SKC,0.07,WeatherDisplay:10.37,2013-06-07 21:48:00,
2013-06-07 16:54:00,74.1,48.9,29.88,East,96,6.9,6.9,41,0.07,RA,SKC,0.08,WeatherDisplay:10.37,2013-06-07 21:54:00,
2013-06-07 16:59:00,74.2,49.6,29.88,ENE,70,4.6,4.6,42,0.07,RA,SKC,0.08,WeatherDisplay:10.37,2013-06-07 21:59:00,
2013-06-07 17:04:00,74.5,51.8,29.87,East,94,5.3,5.3,45,0.07,CLR,SKC,0.08,WeatherDisplay:10.37,2013-06-07 22:04:00,
2013-06-07 17:09:00,74.6,50.6,29.87,SSE,153,4.6,4.6,43,0.07,CLR,SKC,0.08,WeatherDisplay:10.37,2013-06-07 22:09:00,
2013-06-07 17:15:00,74.9,50.3,29.88,East,86,8.5,8.5,42,0.07,CLR,SKC,0.08,WeatherDisplay:10.37,2013-06-07 22:15:00,
2013-06-07 17:20:00,74.7,49.4,29.88,SE,146,5.8,5.8,41,0.07,CLR,SKC,0.08,WeatherDisplay:10.37,2013-06-07 22:20:00,
2013-06-07 17:25:00,75.0,49.7,29.88,ESE,103,4.6,4.6,41,0.07,CLR,SKC,0.08,WeatherDisplay:10.37,2013-06-07 22:25:00,
2013-06-07 17:30:00,74.8,51.4,29.88,ESE,115,2.3,2.3,44,0.05,CLR,SKC,0.08,WeatherDisplay:10.37,2013-06-07 22:30:00,
2013-06-07 17:36:00,74.9,50.3,29.87,SSW,208,0.0,0.0,42,0.05,CLR,SKC,0.08,WeatherDisplay:10.37,2013-06-07 22:36:00,
2013-06-07 17:41:00,75.6,50.2,29.87,WSW,256,1.2,0.0,41,0.05,CLR,SKC,0.08,WeatherDisplay:10.37,2013-06-07 22:41:00,
2013-06-07 17:46:00,75.6,50.2,29.87,ENE,72,6.9,6.9,41,0.01,CLR,SKC,0.08,WeatherDisplay:10.37,2013-06-07 22:46:00,
2013-06-07 17:51:00,74.7,50.7,29.87,East,94,8.5,8.5,43,0.00,CLR,SKC,0.08,WeatherDisplay:10.37,2013-06-07 22:51:00,
2013-06-07 17:57:00,74.2,50.3,29.86,NE,36,6.9,6.9,43,0.00,CLR,SKC,0.08,WeatherDisplay:10.37,2013-06-07 22:57:00,
2013-06-07 18:02:00,74.0,51.3,29.87,ESE,110,6.9,6.9,45,0.00,CLR,SKC,0.08,WeatherDisplay:10.37,2013-06-07 23:02:00,
2013-06-07 18:07:00,73.6,50.3,29.86,NE,51,5.8,5.8,44,0.00,CLR,SKC,0.08,WeatherDisplay:10.37,2013-06-07 23:07:00,
2013-06-07 18:12:00,73.3,50.1,29.86,ENE,77,7.4,7.4,44,0.00,CLR,SKC,0.08,WeatherDisplay:10.37,2013-06-07 23:12:00,
2013-06-07 18:17:00,73.5,49.0,29.86,East,84,8.5,8.5,42,0.01,RA,SKC,0.09,WeatherDisplay:10.37,2013-06-07 23:17:00,
2013-06-07 18:23:00,73.5,49.6,29.86,East,98,3.5,3.5,43,0.01,RA,SKC,0.09,WeatherDisplay:10.37,2013-06-07 23:23:00,
2013-06-07 18:28:00,73.6,49.1,29.86,East,84,5.8,5.8,42,0.01,,SKC,0.09,WeatherDisplay:10.37,2013-06-07 23:28:00,
2013-06-07 18:33:00,73.5,49.0,29.85,SSE,150,2.3,2.3,42,0.01,CLR,SKC,0.09,WeatherDisplay:10.37,2013-06-07 23:33:00,
2013-06-07 18:39:00,73.6,50.3,29.85,ESE,117,5.8,5.8,44,0.01,CLR,SKC,0.09,WeatherDisplay:10.37,2013-06-07 23:39:00,
2013-06-07 18:44:00,73.8,49.3,29.85,ENE,59,5.8,5.8,42,0.01,CLR,SKC,0.09,WeatherDisplay:10.37,2013-06-07 23:44:00,
2013-06-07 18:49:00,74.0,51.9,29.85,ENE,69,0.0,0.0,46,0.01,CLR,SKC,0.09,WeatherDisplay:10.37,2013-06-07 23:49:00,
2013-06-07 18:54:00,74.2,50.9,29.85,SE,142,6.4,6.4,44,0.01,CLR,SKC,0.09,WeatherDisplay:10.37,2013-06-07 23:54:00,
2013-06-07 18:59:00,74.2,49.6,29.85,East,81,3.5,3.5,42,0.01,CLR,SKC,0.09,WeatherDisplay:10.37,2013-06-07 23:59:00,
2013-06-07 19:04:00,73.9,50.0,29.84,East,96,4.6,4.6,43,0.01,CLR,SKC,0.09,WeatherDisplay:10.37,2013-06-08 00:04:00,
2013-06-07 19:10:00,73.7,50.4,29.85,ESE,104,7.0,8.0,44,0.00,CLR,SKC,0.09,WeatherDisplay:10.37,2013-06-08 00:10:00,
2013-06-07 19:15:00,73.5,50.2,29.84,East,97,6.9,6.9,44,0.01,CLR,SKC,0.09,WeatherDisplay:10.37,2013-06-08 00:15:00,
2013-06-07 19:20:00,73.5,50.2,29.84,East,94,7.4,7.4,44,0.00,CLR,SKC,0.09,WeatherDisplay:10.37,2013-06-08 00:20:00,
2013-06-07 19:25:00,73.3,49.4,29.84,ESE,119,6.9,6.9,43,0.00,CLR,SKC,0.09,WeatherDisplay:10.37,2013-06-08 00:25:00,
2013-06-07 19:31:00,73.2,49.4,29.84,ESE,109,6.9,6.9,43,0.00,CLR,SKC,0.09,WeatherDisplay:10.37,2013-06-08 00:31:00,
2013-06-07 19:36:00,73.1,49.9,29.84,SE,136,6.9,6.9,44,0.00,RA,SKC,0.00,WeatherDisplay:10.37,2013-06-08 00:36:00,
2013-06-07 19:41:00,73.1,49.9,29.84,SE,124,7.4,7.4,44,0.00,RA,SKC,0.00,WeatherDisplay:10.37,2013-06-08 00:41:00,
2013-06-07 19:46:00,73.0,51.0,29.84,ESE,119,6.9,6.9,46,0.00,CLR,SKC,0.00,WeatherDisplay:10.37,2013-06-08 00:46:00,
2013-06-07 19:52:00,72.7,50.7,29.84,ESE,116,9.5,9.5,46,0.00,CLR,SKC,0.00,WeatherDisplay:10.37,2013-06-08 00:52:00,
2013-06-07 19:57:00,72.6,50.0,29.84,ESE,112,7.4,7.4,45,0.00,CLR,SKC,0.00,WeatherDisplay:10.37,2013-06-08 00:57:00,
2013-06-07 20:03:00,72.4,51.0,29.84,ESE,117,6.9,6.9,47,0.00,CLR,SKC,0.00,WeatherDisplay:10.37,2013-06-08 01:03:00,
2013-06-07 20:08:00,72.0,51.2,29.84,ESE,113,6.9,6.9,48,0.00,CLR,SKC,0.00,WeatherDisplay:10.37,2013-06-08 01:08:00,
2013-06-07 20:13:00,71.7,51.0,29.84,ESE,120,5.8,5.8,48,0.00,CLR,SKC,0.00,WeatherDisplay:10.37,2013-06-08 01:13:00,
2013-06-07 20:19:00,71.4,50.7,29.84,ESE,105,4.6,4.6,48,0.00,CLR,SKC,0.00,WeatherDisplay:10.37,2013-06-08 01:19:00,
2013-06-07 20:24:00,71.1,50.4,29.84,ESE,116,6.9,6.9,48,0.00,CLR,SKC,0.00,WeatherDisplay:10.37,2013-06-08 01:24:00,
2013-06-07 20:29:00,70.9,51.3,29.84,ESE,109,5.8,5.8,50,0.00,CLR,SKC,0.00,WeatherDisplay:10.37,2013-06-08 01:29:00,
2013-06-07 20:34:00,70.5,51.0,29.84,ESE,117,6.9,6.9,50,0.00,CLR,SKC,0.00,WeatherDisplay:10.37,2013-06-08 01:34:00,
2013-06-07 20:40:00,70.1,50.6,29.84,ESE,117,5.0,7.0,50,0.00,CLR,SKC,0.00,WeatherDisplay:10.37,2013-06-08 01:40:00,
2013-06-07 20:45:00,69.7,50.8,29.84,ESE,113,5.8,5.8,51,0.00,CLR,SKC,0.00,WeatherDisplay:10.37,2013-06-08 01:45:00,
2013-06-07 20:50:00,69.2,50.8,29.84,East,101,4.6,4.6,52,0.00,CLR,SKC,0.00,WeatherDisplay:10.37,2013-06-08 01:50:00,
2013-06-07 20:55:00,68.8,51.0,29.84,East,90,5.8,5.8,53,0.00,CLR,SKC,0.00,WeatherDisplay:10.37,2013-06-08 01:55:00,
2013-06-07 21:01:00,68.1,50.8,29.84,East,89,4.6,4.6,54,0.00,CLR,SKC,0.00,WeatherDisplay:10.37,2013-06-08 02:01:00,
2013-06-07 21:06:00,67.9,51.1,29.84,ESE,104,4.6,4.6,55,0.00,CLR,SKC,0.00,WeatherDisplay:10.37,2013-06-08 02:06:00,
2013-06-07 21:11:00,67.6,51.3,29.84,East,94,4.6,4.6,56,0.00,CLR,SKC,0.00,WeatherDisplay:10.37,2013-06-08 02:11:00,
2013-06-07 21:17:00,67.2,51.4,29.84,East,99,4.6,4.6,57,0.00,CLR,SKC,0.00,WeatherDisplay:10.37,2013-06-08 02:17:00,
2013-06-07 21:22:00,66.9,51.2,29.84,East,94,4.6,4.6,57,0.00,CLR,SKC,0.00,WeatherDisplay:10.37,2013-06-08 02:22:00,
2013-06-07 21:28:00,66.5,51.7,29.84,ESE,108,4.6,4.6,59,0.00,CLR,SKC,0.00,WeatherDisplay:10.37,2013-06-08 02:28:00,
2013-06-07 21:33:00,66.0,51.7,29.84,ESE,107,4.6,4.6,60,0.00,CLR,SKC,0.00,WeatherDisplay:10.37,2013-06-08 02:33:00,
2013-06-07 21:38:00,65.8,51.1,29.84,East,95,5.8,5.8,59,0.00,CLR,SKC,0.00,WeatherDisplay:10.37,2013-06-08 02:38:00,
2013-06-07 21:43:00,65.5,51.7,29.84,East,101,4.6,4.6,61,0.00,CLR,SKC,0.00,WeatherDisplay:10.37,2013-06-08 02:43:00,
2013-06-07 21:48:00,65.5,51.2,29.84,ESE,115,5.3,5.3,60,0.00,CLR,SKC,0.00,WeatherDisplay:10.37,2013-06-08 02:48:00,
2013-06-07 21:54:00,65.4,52.0,29.85,East,94,4.6,4.6,62,0.00,CLR,SKC,0.00,WeatherDisplay:10.37,2013-06-08 02:54:00,
2013-06-07 21:59:00,65.2,51.4,29.85,East,100,4.6,4.6,61,0.00,CLR,SKC,0.00,WeatherDisplay:10.37,2013-06-08 02:59:00,
2013-06-07 22:04:00,65.3,51.5,29.85,ESE,107,5.3,5.3,61,0.00,CLR,SKC,0.00,WeatherDisplay:10.37,2013-06-08 03:04:00,
2013-06-07 22:09:00,65.1,51.3,29.85,ESE,105,5.8,5.8,61,0.00,CLR,SKC,0.00,WeatherDisplay:10.37,2013-06-08 03:09:00,
2013-06-07 22:14:00,64.9,51.1,29.85,East,101,6.9,6.9,61,0.00,CLR,SKC,0.00,WeatherDisplay:10.37,2013-06-08 03:14:00,
2013-06-07 22:19:00,64.7,51.4,29.85,ESE,106,6.4,6.4,62,0.00,CLR,SKC,0.00,WeatherDisplay:10.37,2013-06-08 03:19:00,
2013-06-07 22:25:00,64.5,51.2,29.85,ESE,113,6.9,6.9,62,0.00,CLR,SKC,0.00,WeatherDisplay:10.37,2013-06-08 03:25:00,
2013-06-07 22:30:00,64.1,51.2,29.86,ESE,109,5.0,7.0,63,0.00,CLR,SKC,0.00,WeatherDisplay:10.37,2013-06-08 03:30:00,
2013-06-07 22:35:00,64.0,51.1,29.86,East,96,5.8,5.8,63,0.00,CLR,SKC,0.00,WeatherDisplay:10.37,2013-06-08 03:35:00,
2013-06-07 22:40:00,63.9,51.1,29.86,ESE,105,5.8,5.8,63,0.00,CLR,SKC,0.00,WeatherDisplay:10.37,2013-06-08 03:40:00,
2013-06-07 22:46:00,63.7,51.3,29.86,ESE,114,5.3,5.3,64,0.00,CLR,SKC,0.00,WeatherDisplay:10.37,2013-06-08 03:46:00,
2013-06-07 22:51:00,63.7,51.3,29.86,ESE,117,5.8,5.8,64,0.00,CLR,SKC,0.00,WeatherDisplay:10.37,2013-06-08 03:51:00,
2013-06-07 22:56:00,63.4,51.0,29.86,ESE,122,4.6,4.6,64,0.00,CLR,SKC,0.00,WeatherDisplay:10.37,2013-06-08 03:56:00,
2013-06-07 23:01:00,63.2,51.2,29.86,East,93,5.3,5.3,65,0.00,CLR,SKC,0.00,WeatherDisplay:10.37,2013-06-08 04:01:00,
2013-06-07 23:02:00,63.2,51.2,29.86,East,93,5.3,5.3,65,0.00,CLR,SKC,0.00,WeatherDisplay:10.37,2013-06-08 04:02:00,
2013-06-07 23:07:00,62.9,51.4,29.86,ESE,109,5.8,5.8,66,0.00,CLR,SKC,0.00,WeatherDisplay:10.37,2013-06-08 04:07:00,
2013-06-07 23:12:00,62.6,51.5,29.86,ESE,122,4.6,4.6,67,0.00,CLR,SKC,0.00,WeatherDisplay:10.37,2013-06-08 04:12:00,
2013-06-07 23:17:00,62.4,51.3,29.86,ESE,105,6.9,6.9,67,0.00,CLR,SKC,0.00,WeatherDisplay:10.37,2013-06-08 04:17:00,
2013-06-07 23:22:00,62.4,51.3,29.86,SE,130,4.6,4.6,67,0.00,CLR,SKC,0.00,WeatherDisplay:10.37,2013-06-08 04:22:00,
2013-06-07 23:27:00,62.0,51.3,29.86,SE,131,4.6,4.6,68,0.00,CLR,SKC,0.00,WeatherDisplay:10.37,2013-06-08 04:27:00,
2013-06-07 23:32:00,61.8,51.5,29.86,ESE,108,4.6,4.6,69,0.00,CLR,SKC,0.00,WeatherDisplay:10.37,2013-06-08 04:32:00,
2013-06-07 23:37:00,61.5,51.6,29.86,ESE,117,5.8,5.8,70,0.00,CLR,SKC,0.00,WeatherDisplay:10.37,2013-06-08 04:37:00,
2013-06-07 23:42:00,61.3,51.4,29.85,ESE,115,4.6,4.6,70,0.00,CLR,SKC,0.00,WeatherDisplay:10.37,2013-06-08 04:42:00,
2013-06-07 23:47:00,61.3,51.4,29.85,ESE,111,5.8,5.8,70,0.00,CLR,SKC,0.00,WeatherDisplay:10.37,2013-06-08 04:47:00,
2013-06-07 23:52:00,61.1,51.2,29.85,ESE,119,5.8,5.8,70,0.00,CLR,SKC,0.00,WeatherDisplay:10.37,2013-06-08 04:52:00,
2013-06-07 23:57:00,61.1,51.6,29.85,SE,129,6.9,6.9,71,0.00,CLR,SKC,0.00,WeatherDisplay:10.37,2013-06-08 04:57:00,